Date String (YYYY-MM-DD hh:mm:ss) UTC,Instrument flags,Ambient pressure (hPa),Sample flow (lpm),Bypass flow (lpm),Sample temperature (°C),Ambient temperature (°C),ASC tube jacket temperature (°C),LED temperature (°C),Box temperature (°C),Sample RH (%),Span deviation,Mass concentration (μg/m³),Mass concentration (μg/m³),Mass concentration (μg/m³)
DateTimeUTC,F1_M11,P_M11,Q1_M11,Q2_M11,T1_M11,T2_M11,T3_M11,T4_M11,T5_M11,U1_M11,ZSPAN_M11,X0_M11,X2_M11,X1_M11
2023-04-22 17:00:00,,0834.0,4.99,0.00,22.5,22.6,00.0,30.7,24.3,12.9,0000.0,0009.91,0006.97,0006.21
2023-04-22 17:01:00,,0834.0,4.99,0.00,22.5,22.3,00.0,30.8,24.1,12.9,0000.0,0009.86,0006.98,0006.23
2023-04-22 17:02:00,,0833.9,5.01,0.00,22.4,21.9,00.0,30.8,24.0,12.9,0000.0,0009.84,0006.99,0006.24
2023-04-22 17:03:00,,0834.0,5.00,0.00,22.4,21.6,00.0,30.8,23.9,13.0,0000.0,0009.94,0007.00,0006.26
2023-04-22 17:04:00,,0833.9,5.01,0.00,22.4,21.3,00.0,30.8,23.9,13.4,0000.0,0009.97,0007.00,0006.26
2023-04-22 17:05:00,,0834.0,5.00,0.00,22.3,21.0,00.0,30.8,23.8,13.1,0000.0,0009.98,0006.98,0006.26
2023-04-22 17:06:00,,0833.9,4.99,0.00,22.3,20.8,00.0,30.8,23.7,13.0,0000.0,0010.05,0007.00,0006.28
2023-04-22 17:07:00,,0833.8,5.00,0.00,22.2,20.6,00.0,30.8,23.6,13.1,0000.0,0010.14,0007.03,0006.29
2023-04-22 17:08:00,,0833.8,5.00,0.00,22.2,20.5,00.0,30.7,23.6,13.3,0000.0,0010.05,0007.00,0006.28
2023-04-22 17:09:00,,0833.8,5.00,0.00,22.2,20.4,00.0,30.7,23.6,13.6,0000.0,0009.88,0006.96,0006.26
2023-04-22 17:10:00,,0833.8,5.01,0.00,22.1,20.4,00.0,30.7,23.5,13.6,0000.0,0009.80,0006.92,0006.25
2023-04-22 17:11:00,,0833.8,5.00,0.00,22.1,20.3,00.0,30.7,23.5,13.6,0000.0,0009.82,0006.90,0006.25
2023-04-22 17:12:00,,0833.8,5.00,0.00,22.1,20.3,00.0,30.7,23.5,13.6,0000.0,0009.91,0006.91,0006.25
2023-04-22 17:13:00,,0833.8,5.00,0.00,22.0,20.3,00.0,30.6,23.4,13.3,0000.0,0009.98,0006.93,0006.25
2023-04-22 17:14:00,,0833.8,5.00,0.00,22.1,20.9,00.0,30.6,23.7,13.4,0000.0,0009.91,0006.93,0006.24
2023-04-22 17:15:00,,0833.8,4.99,0.00,22.2,22.3,00.0,30.5,24.2,13.5,0000.0,0009.87,0006.92,0006.24
2023-04-22 17:16:00,,0833.8,5.00,0.00,22.4,22.8,00.0,30.6,24.3,13.5,0000.0,0009.86,0006.91,0006.26
2023-04-22 17:17:00,,0833.8,4.98,0.00,22.4,22.4,00.0,30.6,24.1,13.4,0000.0,0009.97,0006.93,0006.27
2023-04-22 17:18:00,,0833.7,5.00,0.00,22.3,22.0,00.0,30.7,23.9,13.7,0000.0,0009.99,0006.93,0006.28
2023-04-22 17:19:00,,0833.7,5.00,0.00,22.3,21.7,00.0,30.7,23.8,14.0,0000.0,0010.11,0006.98,0006.29
2023-04-22 17:20:00,,0833.7,5.00,0.00,22.3,21.4,00.0,30.7,23.8,13.9,0000.0,0010.08,0006.98,0006.30
2023-04-22 17:21:00,,0833.7,5.00,0.00,22.2,21.2,00.0,30.7,23.7,13.6,0000.0,0009.98,0006.96,0006.31
2023-04-22 17:22:00,,0833.7,5.01,0.00,22.2,21.0,00.0,30.7,23.6,13.6,0000.0,0010.00,0006.96,0006.33
2023-04-22 17:23:00,,0833.7,5.00,0.00,22.2,20.8,00.0,30.7,23.6,13.6,0000.0,0010.07,0006.99,0006.34
2023-04-22 17:24:00,,0833.7,5.00,0.00,22.1,20.6,00.0,30.7,23.5,13.6,0000.0,0010.15,0007.01,0006.36
2023-04-22 17:25:00,,0833.8,5.00,0.00,22.1,20.4,00.0,30.6,23.5,13.9,0000.0,0010.20,0007.04,0006.37
2023-04-22 17:26:00,,0833.7,5.00,0.00,22.0,20.2,00.0,30.6,23.4,14.0,0000.0,0010.29,0007.07,0006.37
2023-04-22 17:27:00,,0833.7,5.00,0.00,22.0,20.1,00.0,30.6,23.3,14.1,0000.0,0010.28,0007.09,0006.37
2023-04-22 17:28:00,,0833.7,5.01,0.00,22.0,20.3,00.0,30.5,23.4,14.2,0000.1,0010.10,0007.08,0006.36
2023-04-22 17:29:00,,0833.7,5.00,0.00,22.1,21.6,00.0,30.5,23.9,13.9,0000.1,0009.92,0007.02,0006.35
2023-04-22 17:30:00,,0833.7,5.01,0.00,22.3,22.7,00.0,30.5,24.3,13.9,0000.4,0009.77,0006.97,0006.35
2023-04-22 17:31:00,,0833.7,5.00,0.00,22.3,22.6,00.0,30.6,24.1,14.0,0000.3,0009.79,0006.95,0006.33
2023-04-22 17:32:00,,0833.7,4.99,0.00,22.3,22.2,00.0,30.6,23.9,14.0,0000.4,0009.87,0006.96,0006.32
2023-04-22 17:33:00,,0833.7,4.99,0.00,22.3,21.9,00.0,30.6,23.9,14.0,0000.8,0009.81,0006.95,0006.30
2023-04-22 17:34:00,,0833.7,5.01,0.00,22.3,21.5,00.0,30.6,23.8,14.3,0000.6,0009.64,0006.90,0006.28
2023-04-22 17:35:00,,0833.7,5.00,0.00,22.2,21.3,00.0,30.7,23.7,14.1,0000.1,0009.53,0006.89,0006.26
2023-04-22 17:36:00,,0833.7,5.01,0.00,22.2,21.0,00.0,30.7,23.7,13.9,0000.0,0009.46,0006.86,0006.24
2023-04-22 17:37:00,,0833.6,5.00,0.00,22.2,20.8,00.0,30.6,23.7,14.0,0000.0,0009.46,0006.85,0006.22
2023-04-22 17:38:00,,0833.6,5.00,0.00,22.2,20.7,00.0,30.6,23.6,14.3,0000.0,0009.43,0006.84,0006.21
2023-04-22 17:39:00,,0833.6,5.00,0.00,22.1,20.6,00.0,30.6,23.6,14.3,0000.0,0009.36,0006.80,0006.19
2023-04-22 17:40:00,,0833.6,5.01,0.00,22.1,20.5,00.0,30.6,23.5,14.2,0000.0,0009.37,0006.79,0006.17
2023-04-22 17:41:00,,0833.6,5.01,0.00,22.1,20.3,00.0,30.6,23.4,14.0,0000.0,0009.44,0006.79,0006.17
2023-04-22 17:42:00,,0833.5,5.00,0.00,22.0,20.1,00.0,30.6,23.3,14.2,0000.0,0009.91,0006.79,0006.17
2023-04-22 17:43:00,,0833.5,5.00,0.00,21.9,20.0,00.0,30.5,23.2,14.0,0000.0,0009.92,0006.80,0006.16
2023-04-22 17:44:00,,0833.5,5.01,0.00,21.9,19.9,00.0,30.5,23.2,14.1,0000.0,0009.99,0006.81,0006.14
2023-04-22 17:45:00,,0833.4,5.00,0.00,21.8,19.8,00.0,30.5,23.2,14.2,0000.0,0010.07,0006.83,0006.14
2023-04-22 17:46:00,,0833.4,5.00,0.00,21.9,20.5,00.0,30.4,23.5,14.2,0000.0,0010.05,0006.82,0006.13
2023-04-22 17:47:00,,0833.5,5.00,0.00,22.0,22.0,00.0,30.4,24.0,14.0,0000.0,0009.97,0006.80,0006.15
2023-04-22 17:48:00,,0833.4,5.00,0.00,22.2,22.6,00.0,30.4,24.1,13.7,0000.5,0009.91,0006.75,0006.15
2023-04-22 17:49:00,,0833.4,5.00,0.00,22.2,22.2,00.0,30.5,23.9,13.7,0000.3,0009.96,0006.76,0006.14
2023-04-22 17:50:00,,0833.4,5.00,0.00,22.2,21.9,00.0,30.5,23.8,13.8,-000.3,0010.42,0006.76,0006.13
2023-04-22 17:51:00,,0833.4,5.00,0.00,22.1,21.6,00.0,30.5,23.7,13.6,-000.4,0010.97,0006.84,0006.15
2023-04-22 17:52:00,,0833.4,5.00,0.00,22.1,21.3,00.0,30.5,23.6,13.6,-000.1,0010.96,0006.85,0006.14
2023-04-22 17:53:00,,0833.3,5.00,0.00,22.1,21.0,00.0,30.5,23.6,13.8,-000.1,0010.50,0006.86,0006.14
2023-04-22 17:54:00,,0833.4,5.00,0.00,22.1,20.8,00.0,30.5,23.6,14.2,-000.4,0010.54,0006.87,0006.14
2023-04-22 17:55:00,,0833.4,5.00,0.00,22.1,20.7,00.0,30.5,23.6,14.3,-000.2,0010.50,0006.86,0006.15
2023-04-22 17:56:00,,0833.3,5.00,0.00,22.1,20.7,00.0,30.5,23.6,14.1,-000.4,0010.57,0006.88,0006.17
2023-04-22 17:57:00,,0833.3,5.00,0.00,22.1,20.6,00.0,30.5,23.5,13.9,-000.7,0010.96,0006.90,0006.18
2023-04-22 17:58:00,,0833.3,5.00,0.00,22.0,20.5,00.0,30.5,23.5,14.0,-000.5,0010.96,0006.91,0006.17
2023-04-22 17:59:00,,0833.3,5.00,0.00,22.0,20.4,00.0,30.5,23.5,14.3,-000.2,0011.07,0006.94,0006.18
